Regional Weather Roundup
Issued by NWS

Home | Current Version | Previous Version | Text Only | Print | Product List | Glossary On
Versions: 1 2 3 4 5 6 7 8 9 10 11 12 13 14 15 16 17 18 19 20 21 22 23 24 25 26 27 28 29 30 31 32 33 34 35 36 37 38 39 40 41 42 43 44 45 46 47 48 49 50
000
ASUS43 KLSX 242057
RWRMO

WEATHER SUMMARY FOR MISSOURI
NATIONAL WEATHER SERVICE SPRINGFIELD MO
400 PM CDT SUN SEP 24 2017

NOTE: "FAIR" INDICATES FEW OR NO CLOUDS BELOW 12,000 FEET WITH NO
       SIGNIFICANT WEATHER AND/OR OBSTRUCTIONS TO VISIBILITY.
       CURRENT SKY AND/OR WEATHER CONDITIONS ARE NOT AVAILABLE FOR
       CHILLICOTHE AND FARMINGTON.

MOZ001>031-035>038-043-044-053-054-242200-
...NORTHERN AND WESTERN MISSOURI...

CITY           SKY/WX    TMP DP  RH WIND       PRES   REMARKS
KANSAS CTY INT MOSUNNY   84  67  56 S9        29.92F
LEE`S SUMMIT   MOSUNNY   87  66  49 S12       29.94F
ST JOSEPH      MOSUNNY   89  66  46 S13G21    29.90F HX  91
CHILLICOTHE      N/A     88  66  48 SE10      29.93F HX  90

$$
MOZ066>068-077>081-088>096-101>105-242200-
...SOUTHWEST MISSOURI...

CITY           SKY/WX    TMP DP  RH WIND       PRES   REMARKS
SPRINGFIELD    LGT RAIN  74  69  85 E14       29.97S
JOPLIN         SUNNY     86  67  52 S9        29.92F
BRANSON        TSTM      73  68  83 E15       30.01R VSB 1/4

$$
MOZ032>034-039>042-045>050-055>058-069>072-242200-
...CENTRAL MISSOURI...

CITY           SKY/WX    TMP DP  RH WIND       PRES   REMARKS
COLUMBIA       NOT AVBL
JEFFERSON CITY SUNNY     90  65  43 SE3       29.93F HX  92
ROLLA          PTSUNNY   87  65  47 NE5       29.97F
SEDALIA        SUNNY     90  67  46 S8        29.96F HX  93
WARRENSBURG    SUNNY     86  63  45 S7        29.93F

$$
MOZ051-052-059>065-242200-
...EAST CENTRAL MISSOURI...

CITY           SKY/WX    TMP DP  RH WIND       PRES   REMARKS
ST LOUIS INTL  MOSUNNY   90  62  39 E7        29.96F HX  90

$$
MOZ072>076-082>087-097>100-106>115-242200-
...SOUTH CENTRAL AND SOUTHEAST MISSOURI...

CITY           SKY/WX    TMP DP  RH WIND       PRES   REMARKS
CAPE GIRARDEAU CLOUDY    84  61  45 N6        29.96S
FARMINGTON     SUNNY     90  64  43 E5        29.98F HX  91
POPLAR BLUFF   CLOUDY    79  67  66 NE7       29.95F
WEST PLAINS    MOSUNNY   86  63  45 W9        29.98F

$$


USA.gov is the U.S. government's official web portal to all federal, state and local government web resources and services.